Weather in Carupano

Venezuela     10°40′12″N   63°15′23″W
temp.,
°C
wind,
m/s
gust,
m/s
humid.,
%
clouds,
%
prec.,
mm/h
press.,
hPa
HPBL,
m
19 april, mon
mon1923:00+25e71085100 0.3 1016560
02:00+25e698486 0.4 1015587
05:00+24e7108316 0.2 1015689
08:00+25e69785 0.3 1017823
11:00+27ene910725 0.1 1017747
14:00+26ne10117414 0.1 1014786
17:00+26ene9117960 0.0 1013688
20:00+25e81182100 0.0 1015672
20 april, tue
tue2023:00+25e81083100 0.1 1016648
02:00+25e7108290 0.1 1014710
05:00+24e698233 0.1 1015730
08:00+25ese4680100 0.2 1017510
11:00+27ene8872100 0.2 1016740
14:00+26ne9977100 0.3 1014666
17:00+26ene8107986 0.0 1013573
20:00+25e71081100 0.0 1014630
21 april, wed
wed2123:00+25e71082100 0.1 1015625
02:00+24e69835 0.3 1013587
05:00+24ese58856 0.5 1014477
08:00+25ese35785 0.7 1016444
11:00+27ne677216 0.0 1015568
14:00+26ene99749 0.0 1013624
17:00+26ne910800 0.0 1012534
20:00+25e710851 0.0 1014560
22 april, thu
thu2223:00+25e68865 0.0 1014444
02:00+24ese35873 0.1 1013267
05:00+24se45882 0.0 1013222
08:00+25ese46780 0.0 1015517
11:00+27ene78752 0.0 1015567
14:00+27ne1010739 0.0 1012608
17:00+26ene911775 0.0 1011567
20:00+26e710827 0.0 1013420
23 april, fri
fri2323:00+25ese46855 0.0 1014204
02:00+24se35885 0.0 1013232
05:00+24ese45892 0.0 1013252
08:00+25ese47805 0.0 1015488
11:00+27ene89765 0.0 1014546
14:00+27ene1010745 0.0 1011640
17:00+27ene1011775 0.0 1010481
20:00+26e710855 0.0 1013450